X  Close Light rain tonight and tomorrow morning.
Conditions Temperature Feels Precipitation Wind Wind Direction UV index Pressure
07:00 clear-night Clear 42° - 4-8 mph East Easterly - 1021,80
08:00 partly-cloudy-day Partly Cloudy 44° 0 in 3% 4-10 mph ESE ESE - 1022,10
09:00 partly-cloudy-day Partly Cloudy 47° 0 in 2% 6-11 mph ESE ESE uv-1 1022,30
10:00 partly-cloudy-day Mostly Cloudy 51° - 6-12 mph SE SE uv-2 1022,50
11:00 partly-cloudy-day Mostly Cloudy 58° - 7-15 mph SE SE uv-3 1022,40
12:00 partly-cloudy-day Mostly Cloudy 63° - 8-16 mph SE SE uv-3 1021,80
13:00 partly-cloudy-day Mostly Cloudy 65° 0 in 1% 9-17 mph SE SE uv-3 1020,90
14:00 cloudy Overcast 67° - 10-18 mph SSE SSE uv-3 1020,20
15:00 cloudy Overcast 67° - 11-19 mph SSE SSE uv-2 1019,40
16:00 cloudy Overcast 66° 0 in 2% 11-20 mph SSE SSE uv-1 1018,60
17:00 cloudy Overcast 64° 0 in 3% 11-22 mph SSE SSE - 1018,10
18:00 cloudy Overcast 62° 0 in 4% 10-23 mph SE SE - 1017,70
19:00 partly-cloudy-night Mostly Cloudy 60° 0 in 4% 9-21 mph SE SE - 1017,90
20:00 partly-cloudy-night Mostly Cloudy 60° 0.01 in 6% 8-20 mph SE SE - 1018,40
21:00 partly-cloudy-night Mostly Cloudy 59° 0.01 in 11% 8-22 mph SE SE - 1018,90
22:00 partly-cloudy-night Mostly Cloudy 58° 0.01 in 20% 7-21 mph SE SE - 1018,60
23:00 rain Possible Light Rain 57° 0.02 in 37% 7-20 mph SE SE - 1018,00
00:00 rain Possible Light Rain 58° 0.03 in 59% 7-19 mph SE SE - 1017,40
01:00 rain Possible Light Rain 58° 0.03 in 65% 6-18 mph SE SE - 1017,00
02:00 rain Light Rain 58° 0.04 in 72% 6-16 mph SE SE - 1016,50
03:00 rain Light Rain 59° 0.04 in 73% 6-15 mph SE SE - 1016,10
04:00 rain Light Rain 59° 0.04 in 70% 6-14 mph SE SE - 1015,60
05:00 rain Light Rain 59° 0.04 in 66% 5-14 mph SSE SSE - 1015,10
06:00 rain Possible Light Rain 59° 0.04 in 65% 5-14 mph SSE SSE - 1014,80
07:00 rain Light Rain 59° 0.05 in 68% 5-13 mph SSE SSE - 1015,30
08:00 rain Light Rain 59° 0.07 in 71% 4-11 mph SSE SSE - 1016,00
09:00 rain Light Rain 60° 0.08 in 71% 4-10 mph South South uv-1 1016,50
10:00 rain Possible Light Rain 61° 0.05 in 63% 4-9 mph South South uv-2 1016,50
11:00 rain Possible Drizzle 62° 0.01 in 44% 4-9 mph WSW WSW uv-3 1016,40
12:00 rain Possible Drizzle 64° 0 in 26% 4-9 mph WSW WSW uv-3 1016,10
13:00 partly-cloudy-day Mostly Cloudy 67° 0 in 12% 5-9 mph SSW SSW uv-3 1015,60
14:00 partly-cloudy-day Partly Cloudy 69° 0 in 8% 5-9 mph North North uv-3 1015,00
15:00 partly-cloudy-day Partly Cloudy 70° 0 in 6% 6-8 mph WNW WNW uv-2 1014,60
16:00 partly-cloudy-day Partly Cloudy 69° 0 in 4% 5-8 mph NW NW uv-1 1014,50
17:00 partly-cloudy-day Partly Cloudy 67° 0 in 3% 5-8 mph NNW NNW - 1014,60
18:00 partly-cloudy-night Partly Cloudy 64° 0 in 3% 4-8 mph North North - 1014,80
19:00 clear-night Clear 62° 0 in 2% 4-9 mph NNE NNE - 1015,30
20:00 clear-night Clear 59° 0 in 2% 4-9 mph North North - 1015,80
21:00 clear-night Clear 57° 0 in 2% 5-9 mph North North - 1016,30
22:00 clear-night Clear 56° 0 in 2% 4-9 mph NNW NNW - 1016,60
23:00 clear-night Clear 55° 0 in 2% 4-8 mph NNW NNW - 1016,70
00:00 clear-night Clear 54° 0 in 2% 4-8 mph NNW NNW - 1016,80
01:00 clear-night Clear 53° 0 in 2% 4-7 mph NNW NNW - 1016,70
02:00 clear-night Clear 52° 0 in 1% 4-7 mph North North - 1016,60
03:00 partly-cloudy-night Partly Cloudy 51° 0 in 1% 4-7 mph North North - 1016,60
04:00 partly-cloudy-night Partly Cloudy 50° 0 in 2% 4-7 mph North North - 1016,60
05:00 partly-cloudy-night Partly Cloudy 49° 0 in 3% 4-7 mph North North - 1016,70
06:00 partly-cloudy-night Partly Cloudy 48° 0 in 2% 4-7 mph North North - 1016,90
07:00 partly-cloudy-night Partly Cloudy 49° 0 in 2% 4-6 mph NNE NNE - 1017,30